When you browse on this site, cookies collect data to enhance your experience and personalize the content and advertising you see.
Visit our Privacy Policy to learn more. By continuing to use the site, you agree to this use of cookies and data.
  • In United Kingdom
  • List of Countries
  • For 7 days
  • Water Temperature
  • Weather Map
  • Weather Widgets
  • user-avatar
    Login

    Hourly Weather Edeleny

    Today, 27 May, Wednesday

    Time Temperature Precipitation Wind Pressure Humidity
    00:00 +10°C° 0 mm 3 mps 757 mmHg 83%
    01:00 +10°C° 0 mm 3 mps 756 mmHg 83%
    02:00 +10°C° 0 mm 3 mps 757 mmHg 84%
    03:00 +10°C° 0 mm 3 mps 757 mmHg 85%
    04:00 +9°C° 0 mm 3 mps 757 mmHg 86%
    05:00 +11°C° 0 mm 4 mps 757 mmHg 81%
    06:00 +13°C° 0 mm 4 mps 757 mmHg 75%
    07:00 +14°C° 0 mm 5 mps 757 mmHg 70%
    08:00 +15°C° 0 mm 5 mps 757 mmHg 65%
    09:00 +17°C° 0 mm 5 mps 757 mmHg 61%
    10:00 +19°C° 0 mm 6 mps 757 mmHg 57%
    11:00 +19°C° 0.1 mm 5 mps 757 mmHg 54%
    12:00 +20°C° 0.1 mm 5 mps 756 mmHg 52%
    13:00 +21°C° 0.1 mm 5 mps 756 mmHg 50%
    14:00 +21°C° 0.2 mm 5 mps 756 mmHg 53%
    15:00 +20°C° 0.2 mm 5 mps 755 mmHg 55%
    16:00 +20°C° 0.2 mm 4 mps 755 mmHg 58%
    17:00 +18°C° 0.1 mm 4 mps 755 mmHg 63%
    18:00 +17°C° 0.1 mm 3 mps 755 mmHg 68%
    19:00 +14°C° 0.1 mm 3 mps 755 mmHg 74%
    20:00 +14°C° 0 mm 3 mps 755 mmHg 75%
    21:00 +13°C° 0 mm 3 mps 755 mmHg 77%
    22:00 +12°C° 0 mm 3 mps 755 mmHg 78%
    23:00 +12°C° 0 mm 2 mps 755 mmHg 79%

    Tomorrow, 28 May, Thursday

    Time Temperature Precipitation Wind Pressure Humidity
    00:00 +12°C° 0 mm 2 mps 755 mmHg 81%
    01:00 +12°C° 0 mm 2 mps 755 mmHg 82%
    02:00 +10°C° 0 mm 2 mps 755 mmHg 84%
    03:00 +10°C° 0 mm 2 mps 754 mmHg 85%
    04:00 +9°C° 0 mm 2 mps 754 mmHg 87%
    05:00 +12°C° 0 mm 2 mps 754 mmHg 80%
    06:00 +14°C° 0 mm 2 mps 754 mmHg 74%
    07:00 +16°C° 0 mm 3 mps 754 mmHg 68%
    08:00 +17°C° 0 mm 3 mps 753 mmHg 63%
    09:00 +18°C° 0 mm 3 mps 753 mmHg 58%
    10:00 +19°C° 0 mm 4 mps 753 mmHg 53%
    11:00 +20°C° 0 mm 3 mps 752 mmHg 50%
    12:00 +20°C° 0 mm 3 mps 752 mmHg 47%
    13:00 +21°C° 0 mm 3 mps 751 mmHg 44%
    14:00 +21°C° 0 mm 3 mps 751 mmHg 46%
    15:00 +21°C° 0 mm 3 mps 751 mmHg 48%
    16:00 +20°C° 0 mm 3 mps 751 mmHg 51%
    17:00 +18°C° 0.1 mm 3 mps 751 mmHg 59%
    18:00 +16°C° 0.1 mm 3 mps 750 mmHg 68%
    19:00 +13°C° 0.1 mm 3 mps 750 mmHg 76%
    20:00 +12°C° 0 mm 3 mps 750 mmHg 78%
    21:00 +12°C° 0 mm 3 mps 751 mmHg 79%
    22:00 +12°C° 0 mm 2 mps 751 mmHg 80%
    23:00 +10°C° 0 mm 2 mps 751 mmHg 81%

    Day after tomorrow, 29 May, Friday

    Time Temperature Precipitation Wind Pressure Humidity
    00:00 +10°C° 0 mm 2 mps 750 mmHg 83%
    01:00 +9°C° 0 mm 2 mps 750 mmHg 84%
    02:00 +9°C° 0 mm 2 mps 750 mmHg 85%
    03:00 +9°C° 0 mm 2 mps 750 mmHg 87%
    04:00 +8°C° 0 mm 2 mps 750 mmHg 88%
    05:00 +10°C° 0 mm 2 mps 750 mmHg 80%
    06:00 +12°C° 0 mm 3 mps 750 mmHg 73%
    07:00 +14°C° 0 mm 3 mps 750 mmHg 66%
    08:00 +17°C° 0 mm 3 mps 750 mmHg 61%
    09:00 +18°C° 0 mm 4 mps 751 mmHg 57%
    10:00 +19°C° 0 mm 4 mps 751 mmHg 53%
    11:00 +19°C° 0.2 mm 4 mps 750 mmHg 52%
    12:00 +20°C° 0.2 mm 4 mps 750 mmHg 52%
    13:00 +20°C° 0.2 mm 4 mps 750 mmHg 52%
    14:00 +19°C° 0.1 mm 4 mps 749 mmHg 55%
    15:00 +19°C° 0.1 mm 3 mps 749 mmHg 57%
    16:00 +19°C° 0.1 mm 3 mps 749 mmHg 60%
    17:00 +17°C° 0 mm 2 mps 749 mmHg 64%
    18:00 +16°C° 0 mm 2 mps 749 mmHg 68%
    19:00 +14°C° 0 mm 1 mps 749 mmHg 72%
    20:00 +14°C° 0 mm 2 mps 749 mmHg 74%
    21:00 +13°C° 0 mm 2 mps 749 mmHg 77%
    22:00 +12°C° 0 mm 2 mps 749 mmHg 79%
    23:00 +11°C° 0 mm 1 mps 749 mmHg 81%

    30 May, Saturday

    Time Temperature Precipitation Wind Pressure Humidity
    00:00 +11°C° 0 mm 1 mps 749 mmHg 83%
    01:00 +11°C° 0 mm 1 mps 749 mmHg 86%
    02:00 +11°C° 0 mm 1 mps 749 mmHg 85%
    03:00 +11°C° 0 mm 1 mps 749 mmHg 84%
    04:00 +11°C° 0 mm 1 mps 749 mmHg 84%
    05:00 +12°C° 0 mm 1 mps 749 mmHg 80%
    06:00 +13°C° 0 mm 1 mps 749 mmHg 76%
    07:00 +14°C° 0 mm 1 mps 749 mmHg 72%
    08:00 +14°C° 0.1 mm 1 mps 749 mmHg 71%
    09:00 +15°C° 0.1 mm 1 mps 749 mmHg 70%
    10:00 +15°C° 0.1 mm 1 mps 749 mmHg 69%
    11:00 +16°C° 0.4 mm 1 mps 749 mmHg 70%
    12:00 +16°C° 0.4 mm 2 mps 748 mmHg 71%
    13:00 +17°C° 0.4 mm 2 mps 748 mmHg 71%
    14:00 +17°C° 0.4 mm 2 mps 748 mmHg 70%
    15:00 +18°C° 0.4 mm 1 mps 748 mmHg 69%
    16:00 +19°C° 0.4 mm 1 mps 748 mmHg 68%
    17:00 +16°C° 0.2 mm 2 mps 748 mmHg 74%
    18:00 +15°C° 0.2 mm 2 mps 747 mmHg 80%
    19:00 +13°C° 0.2 mm 2 mps 747 mmHg 87%
    20:00 +12°C° 0 mm 2 mps 747 mmHg 87%
    21:00 +12°C° 0 mm 1 mps 748 mmHg 87%
    22:00 +11°C° 0 mm 1 mps 748 mmHg 87%
    23:00 +10°C° 0 mm 1 mps 748 mmHg 87%

    31 May, Sunday

    Time Temperature Precipitation Wind Pressure Humidity
    00:00 +9°C° 0 mm 0 mps 748 mmHg 87%
    01:00 +9°C° 0 mm 0 mps 747 mmHg 87%
    02:00 +9°C° 0 mm 0 mps 747 mmHg 87%
    03:00 +9°C° 0 mm 0 mps 747 mmHg 88%
    04:00 +10°C° 0 mm 1 mps 747 mmHg 88%
    05:00 +11°C° 0 mm 1 mps 747 mmHg 83%
    06:00 +13°C° 0 mm 1 mps 747 mmHg 79%
    07:00 +14°C° 0 mm 1 mps 748 mmHg 75%
    08:00 +15°C° 0 mm 1 mps 748 mmHg 71%
    09:00 +18°C° 0 mm 1 mps 748 mmHg 66%
    10:00 +19°C° 0 mm 1 mps 748 mmHg 62%
    11:00 +19°C° 0.2 mm 1 mps 748 mmHg 62%
    12:00 +20°C° 0.2 mm 1 mps 748 mmHg 63%
    13:00 +20°C° 0.2 mm 1 mps 748 mmHg 64%
    14:00 +20°C° 0.1 mm 1 mps 747 mmHg 66%
    15:00 +19°C° 0.1 mm 1 mps 747 mmHg 68%
    16:00 +19°C° 0.1 mm 1 mps 747 mmHg 70%
    17:00 +18°C° 0 mm 1 mps 747 mmHg 75%
    18:00 +16°C° 0 mm 1 mps 747 mmHg 79%
    19:00 +15°C° 0 mm 1 mps 746 mmHg 84%
    20:00 +15°C° 0.4 mm 1 mps 746 mmHg 87%
    21:00 +14°C° 0.4 mm 1 mps 746 mmHg 90%
    22:00 +13°C° 0.4 mm 1 mps 746 mmHg 93%
    23:00 +13°C° 1.4 mm 1 mps 746 mmHg 94%

    1 June, Monday

    Time Temperature Precipitation Wind Pressure Humidity
    00:00 +13°C° 1.4 mm 1 mps 746 mmHg 96%
    01:00 +13°C° 1.4 mm 1 mps 746 mmHg 98%
    02:00 +13°C° 0.2 mm 1 mps 746 mmHg 97%
    03:00 +13°C° 0.2 mm 1 mps 746 mmHg 97%
    04:00 +13°C° 0.2 mm 1 mps 745 mmHg 97%
    05:00 +13°C° 0.3 mm 1 mps 746 mmHg 96%
    06:00 +14°C° 0.3 mm 1 mps 746 mmHg 95%
    07:00 +14°C° 0.3 mm 2 mps 746 mmHg 94%
    08:00 +16°C° 0.2 mm 2 mps 746 mmHg 89%
    09:00 +17°C° 0.2 mm 3 mps 746 mmHg 84%
    10:00 +19°C° 0.2 mm 4 mps 746 mmHg 79%
    11:00 +19°C° 0.5 mm 5 mps 746 mmHg 77%
    12:00 +20°C° 0.5 mm 6 mps 746 mmHg 74%
    13:00 +21°C° 0.5 mm 7 mps 746 mmHg 72%
    14:00 +21°C° 0.2 mm 6 mps 746 mmHg 69%
    15:00 +21°C° 0.2 mm 6 mps 746 mmHg 67%
    16:00 +21°C° 0.2 mm 6 mps 746 mmHg 64%
    17:00 +19°C° 0 mm 5 mps 746 mmHg 69%
    18:00 +17°C° 0 mm 5 mps 746 mmHg 74%
    19:00 +15°C° 0 mm 4 mps 746 mmHg 79%
    20:00 +14°C° 0 mm 4 mps 747 mmHg 82%
    21:00 +13°C° 0 mm 4 mps 747 mmHg 85%
    22:00 +12°C° 0 mm 3 mps 748 mmHg 88%
    23:00 +12°C° 0 mm 3 mps 748 mmHg 89%
    Show more